When you browse on this site, cookies collect data to enhance your experience and personalize the content and advertising you see.
Visit our Privacy Policy to learn more. By continuing to use the site, you agree to this use of cookies and data.
  • In Sweden
  • List of Countries
  • For 7 days
  • Water Temperature
  • Satellite Maps
  • Weather Map
  • Weather Widgets
  • user-avatar
    Login

    Hourly Weather Alaca

    Today, 11 December, Tuesday

    Time Temperature Precipitation Wind Pressure Humidity
    00:00 +6°C° 0.5 mm 5 mps 673 mmHg 78%
    01:00 +5°C° 0.5 mm 6 mps 672 mmHg 76%
    02:00 +6°C° 0 mm 8 mps 671 mmHg 73%
    03:00 +6°C° 0.6 mm 8 mps 671 mmHg 75%
    04:00 +6°C° 0.6 mm 9 mps 671 mmHg 76%
    05:00 +5°C° 0.6 mm 9 mps 671 mmHg 78%
    06:00 +5°C° 0 mm 9 mps 671 mmHg 75%
    07:00 +4°C° 0 mm 8 mps 672 mmHg 72%
    08:00 +3°C° 0 mm 9 mps 672 mmHg 69%
    09:00 +3°C° 0 mm 10 mps 673 mmHg 65%
    10:00 +4°C° 0 mm 11 mps 674 mmHg 61%
    11:00 +4°C° 0 mm 12 mps 674 mmHg 58%
    12:00 +4°C° 0 mm 11 mps 675 mmHg 57%
    13:00 +4°C° 0 mm 11 mps 675 mmHg 56%
    14:00 +3°C° 0 mm 10 mps 676 mmHg 56%
    15:00 +2°C° 0 mm 8 mps 677 mmHg 59%
    16:00 +3°C° 0 mm 6 mps 677 mmHg 62%
    17:00 +2°C° 0 mm 5 mps 677 mmHg 65%
    18:00 +1°C° 0 mm 4 mps 678 mmHg 67%
    19:00 +2°C° 0 mm 3 mps 678 mmHg 70%
    20:00 +4°C° 0 mm 1 mps 678 mmHg 72%
    21:00 +4°C° 0 mm 1 mps 678 mmHg 72%
    22:00 +4°C° 0 mm 1 mps 677 mmHg 72%
    23:00 +4°C° 0 mm 1 mps 677 mmHg 71%

    Tomorrow, 12 December, Wednesday

    Time Temperature Precipitation Wind Pressure Humidity
    00:00 +4°C° 0.5 mm 1 mps 677 mmHg 74%
    01:00 +3°C° 0.5 mm 1 mps 677 mmHg 76%
    02:00 +2°C° 0.5 mm 2 mps 676 mmHg 79%
    03:00 +3°C° 0.7 mm 1 mps 676 mmHg 82%
    04:00 +3°C° 0.7 mm 1 mps 676 mmHg 84%
    05:00 +2°C° 0.7 mm 1 mps 676 mmHg 87%
    06:00 +2°C° 0.4 mm 1 mps 676 mmHg 88%
    07:00 +2°C° 0.4 mm 1 mps 677 mmHg 89%
    08:00 +2°C° 0.4 mm 1 mps 677 mmHg 90%
    09:00 +3°C° 0.1 mm 1 mps 677 mmHg 87%
    10:00 +3°C° 0.1 mm 1 mps 677 mmHg 85%
    11:00 +3°C° 0.1 mm 1 mps 678 mmHg 83%
    12:00 +4°C° 0 mm 1 mps 678 mmHg 81%
    13:00 +4°C° 0 mm 1 mps 678 mmHg 79%
    14:00 +4°C° 0 mm 1 mps 678 mmHg 77%
    15:00 +4°C° 0 mm 1 mps 678 mmHg 79%
    16:00 +3°C° 0 mm 1 mps 678 mmHg 81%
    17:00 +3°C° 0 mm 1 mps 679 mmHg 83%
    18:00 +3°C° 0.1 mm 1 mps 679 mmHg 84%
    19:00 +3°C° 0.1 mm 1 mps 679 mmHg 84%
    20:00 +3°C° 0.1 mm 1 mps 679 mmHg 85%
    21:00 +2°C° 0.1 mm 1 mps 680 mmHg 86%
    22:00 +1°C° 0.1 mm 2 mps 680 mmHg 86%
    23:00 +1°C° 0.1 mm 2 mps 681 mmHg 87%

    Day after tomorrow, 13 December, Thursday

    Time Temperature Precipitation Wind Pressure Humidity
    00:00 +1°C° 0.1 mm 2 mps 681 mmHg 87%
    01:00 0°C° 0.1 mm 3 mps 681 mmHg 88%
    02:00 -1°C° 0.1 mm 3 mps 682 mmHg 88%
    03:00 -1°C° 0 mm 3 mps 682 mmHg 88%
    04:00 -2°C° 0 mm 3 mps 682 mmHg 89%
    05:00 -2°C° 0 mm 3 mps 683 mmHg 89%
    06:00 -2°C° 0 mm 2 mps 683 mmHg 88%
    07:00 -2°C° 0 mm 2 mps 684 mmHg 88%
    08:00 -3°C° 0 mm 2 mps 685 mmHg 87%
    09:00 -2°C° 0 mm 2 mps 685 mmHg 82%
    10:00 -1°C° 0 mm 3 mps 685 mmHg 77%
    11:00 0°C° 0 mm 3 mps 685 mmHg 72%
    12:00 0°C° 0 mm 3 mps 685 mmHg 68%
    13:00 0°C° 0 mm 3 mps 685 mmHg 65%
    14:00 0°C° 0 mm 3 mps 685 mmHg 61%
    15:00 -1°C° 0 mm 3 mps 685 mmHg 65%
    16:00 -2°C° 0 mm 2 mps 685 mmHg 69%
    17:00 -3°C° 0 mm 2 mps 685 mmHg 72%
    18:00 -3°C° 0 mm 2 mps 685 mmHg 73%
    19:00 -3°C° 0 mm 2 mps 685 mmHg 74%
    20:00 -4°C° 0 mm 2 mps 686 mmHg 75%
    21:00 -4°C° 0 mm 2 mps 686 mmHg 74%
    22:00 -4°C° 0 mm 2 mps 686 mmHg 73%
    23:00 -3°C° 0 mm 2 mps 686 mmHg 72%

    14 December, Friday

    Time Temperature Precipitation Wind Pressure Humidity
    00:00 -1°C° 0 mm 1 mps 686 mmHg 71%
    01:00 -1°C° 0 mm 1 mps 686 mmHg 69%
    02:00 -1°C° 0 mm 1 mps 685 mmHg 68%
    03:00 -1°C° 0 mm 1 mps 685 mmHg 67%
    04:00 0°C° 0 mm 1 mps 685 mmHg 66%
    05:00 0°C° 0 mm 1 mps 685 mmHg 65%
    06:00 0°C° 0.1 mm 1 mps 685 mmHg 68%
    07:00 0°C° 0.1 mm 1 mps 685 mmHg 71%
    08:00 0°C° 0.1 mm 1 mps 685 mmHg 74%
    09:00 +1°C° 0 mm 1 mps 685 mmHg 71%
    10:00 +2°C° 0 mm 1 mps 685 mmHg 69%
    11:00 +2°C° 0 mm 1 mps 685 mmHg 66%
    12:00 +3°C° 0 mm 1 mps 685 mmHg 64%
    13:00 +3°C° 0 mm 1 mps 685 mmHg 63%
    14:00 +3°C° 0 mm 2 mps 685 mmHg 62%
    15:00 +3°C° 0 mm 1 mps 685 mmHg 67%
    16:00 +2°C° 0 mm 1 mps 685 mmHg 72%
    17:00 +1°C° 0 mm 1 mps 685 mmHg 77%
    18:00 +1°C° 0 mm 1 mps 686 mmHg 78%
    19:00 0°C° 0 mm 1 mps 686 mmHg 80%
    20:00 0°C° 0 mm 1 mps 686 mmHg 81%
    21:00 0°C° 0 mm 1 mps 687 mmHg 82%
    22:00 0°C° 0 mm 1 mps 687 mmHg 83%
    23:00 0°C° 0 mm 1 mps 687 mmHg 83%

    15 December, Saturday

    Time Temperature Precipitation Wind Pressure Humidity
    00:00 0°C° 0 mm 1 mps 687 mmHg 84%
    01:00 0°C° 0 mm 1 mps 687 mmHg 85%
    02:00 0°C° 0 mm 1 mps 686 mmHg 85%
    03:00 0°C° 0 mm 1 mps 686 mmHg 86%
    04:00 0°C° 0 mm 1 mps 686 mmHg 86%
    05:00 0°C° 0 mm 1 mps 686 mmHg 86%
    06:00 +1°C° 0 mm 1 mps 687 mmHg 86%
    07:00 +1°C° 0 mm 1 mps 687 mmHg 85%
    08:00 +2°C° 0 mm 1 mps 687 mmHg 84%
    09:00 +3°C° 0 mm 1 mps 687 mmHg 81%
    10:00 +4°C° 0 mm 1 mps 687 mmHg 77%
    11:00 +6°C° 0 mm 1 mps 687 mmHg 74%
    12:00 +6°C° 0 mm 1 mps 686 mmHg 73%
    13:00 +7°C° 0 mm 1 mps 686 mmHg 73%
    14:00 +7°C° 0 mm 1 mps 686 mmHg 72%
    15:00 +6°C° 0 mm 1 mps 685 mmHg 76%
    16:00 +5°C° 0 mm 1 mps 685 mmHg 80%
    17:00 +3°C° 0 mm 0 mps 685 mmHg 83%
    18:00 +4°C° 0 mm 1 mps 685 mmHg 83%
    19:00 +3°C° 0 mm 1 mps 685 mmHg 83%
    20:00 +3°C° 0 mm 1 mps 685 mmHg 83%
    21:00 +3°C° 0 mm 1 mps 685 mmHg 83%
    22:00 +3°C° 0 mm 1 mps 685 mmHg 82%
    23:00 +3°C° 0 mm 1 mps 685 mmHg 82%

    16 December, Sunday

    Time Temperature Precipitation Wind Pressure Humidity
    00:00 +3°C° 0 mm 1 mps 685 mmHg 81%
    01:00 +3°C° 0 mm 1 mps 685 mmHg 81%
    02:00 +3°C° 0 mm 1 mps 684 mmHg 80%
    03:00 +3°C° 0 mm 1 mps 684 mmHg 79%
    04:00 +3°C° 0 mm 1 mps 684 mmHg 79%
    05:00 +3°C° 0 mm 1 mps 684 mmHg 79%
    06:00 +4°C° 0 mm 1 mps 684 mmHg 77%
    07:00 +4°C° 0 mm 1 mps 684 mmHg 76%
    08:00 +4°C° 0 mm 1 mps 684 mmHg 75%
    09:00 +5°C° 0 mm 1 mps 684 mmHg 71%
    10:00 +6°C° 0 mm 1 mps 684 mmHg 68%
    11:00 +7°C° 0 mm 1 mps 684 mmHg 64%
    12:00 +8°C° 0 mm 1 mps 684 mmHg 64%
    13:00 +8°C° 0 mm 1 mps 683 mmHg 64%
    14:00 +8°C° 0 mm 1 mps 683 mmHg 64%
    15:00 +7°C° 0 mm 1 mps 683 mmHg 68%
    16:00 +6°C° 0 mm 1 mps 683 mmHg 72%
    17:00 +5°C° 0 mm 1 mps 683 mmHg 76%
    18:00 +5°C° 0 mm 1 mps 683 mmHg 77%
    19:00 +4°C° 0 mm 1 mps 683 mmHg 78%
    20:00 +4°C° 0 mm 1 mps 683 mmHg 79%
    21:00 +4°C° 0 mm 1 mps 683 mmHg 79%
    22:00 +4°C° 0 mm 1 mps 683 mmHg 80%
    23:00 +4°C° 0 mm 1 mps 684 mmHg 80%
    Show more